View from above orbital plane
|
View from above satellite
|
Ground track
|
The orbit data is extracted from the following two-line orbital elements,
1 33410U 08053C 22145.57463306 .00003466 00000-0 23703-3 0 9992
2 33410 97.8983 151.8512 0125289 268.0046 90.6825 15.00637376740743
Epoch (UTC): | 25 May 2022 13:47:28 |
Eccentricity: | 0.0125289 |
inclination: | 97.8983° |
perigee height: | 478 km |
apogee height: | 652 km |
right ascension of ascending node: | 151.8512° |
argument of perigee: | 268.0046° |
revolutions per day: | 15.00637376 |
mean anomaly at epoch: | 90.6825° |
orbit number at epoch: | 74074 |
The dashed part of the orbit path shows where the satellite is in the earth's shadow,
|
|